Dewpoint
63 63 62 62 62 62 62 61 61 62 61 61 59 60 60 60 60 57 43 49 60 63 63 54 46 42 43 41 44 40 31 28 31 31 32 30 30 31 33 31 30 31 32 41 51
63 63 63 62 63 62 62 62 61 61 61 61 59 60 60 61 54 43 55 62 62 63 48 42 36 41 36 39 40 37 33 32 33 29 28 34 34 33 31 30 30 31 31 34 31
61 61 62 62 62 61 61 61 61 61 61 59 59 60 60 59 45 47 60 61 63 62 54 53 40 40 37 38 36 36 30 36 35 36 35 35 34 36 32 31 31 30 31 31 31
60 61 61 61 61 61 60 61 61 61 60 58 59 61 60 54 36 48 63 64 64 57 51 40 37 37 37 34 36 33 34 35 37 37 37 35 37 34 34 33 33 33 32 31 30
60 61 61 60 60 60 60 60 61 61 60 58 59 61 52 39 43 50 63 61 56 55 41 38 34 36 35 34 33 32 33 34 35 35 34 36 35 34 33 33 33 33 32 31 31
61 60 60 60 60 59 60 60 60 60 60 58 59 60 49 37 41 49 54 46 43 41 38 37 36 36 35 34 34 34 35 34 34 33 33 32 33 34 32 33 32 31 31 30 31
60 60 60 59 59 59 59 59 59 60 59 57 59 53 34 34 39 41 42 41 41 42 42 43 41 35 37 33 37 35 32 33 33 34 32 33 30 30 32 33 31 29 28 29 36
60 60 59 59 59 59 59 59 59 59 58 57 58 52 33 40 39 32 33 35 39 40 44 43 42 40 38 36 36 33 32 29 30 32 32 30 29 29 29 29 30 30 29 29 41
59 59 59 59 58 58 58 58 58 56 55 55 49 46 36 44 31 31 31 33 35 39 42 41 40 38 36 34 32 31 28 28 29 32 31 28 26 29 29 28 28 29 28 32 42
59 58 58 58 58 58 58 56 52 49 44 40 38 33 30 30 32 32 31 33 33 33 40 41 40 37 36 33 29 30 29 28 28 29 29 28 27 29 30 29 29 28 30 33 42
59 58 57 58 58 58 50 40 38 34 35 33 33 31 31 32 33 30 31 30 33 32 32 37 37 34 34 35 34 33 28 27 28 29 29 28 28 28 29 30 29 29 30 40 43
58 58 57 57 57 57 43 39 39 36 32 36 36 33 33 31 29 29 30 29 32 28 29 28 32 34 37 36 32 28 26 26 27 30 25 25 24 26 26 28 33 34 37 36 34
58 57 57 57 57 49 42 41 41 36 33 35 35 33 33 35 31 27 30 32 30 28 27 26 25 28 28 27 25 27 27 26 26 26 26 24 23 24 25 24 32 30 27 26 25
57 56 57 57 48 47 43 46 39 39 33 31 33 34 34 37 34 30 29 29 25 24 25 24 27 23 24 22 24 24 27 25 24 21 18 21 16 18 21 23 25 21 21 21 20
56 56 56 56 48 45 45 47 44 38 15 31 31 33 25 27 25 29 29 28 25 22 23 20 23 23 23 21 23 23 24 23 23 21 19 19 18 18 24 26 22 18 21 26 27
56 56 56 52 48 48 46 46 39 27 23 26 29 26 24 26 24 28 24 25 26 25 24 22 25 22 21 22 20 21 19 19 22 21 17 18 17 16 23 24 20 26 30 32 32
57 56 54 53 45 46 46 41 23 23 28 26 27 26 23 21 21 21 20 20 20 19 20 22 22 22 21 20 21 19 17 15 12 14 11 17 15 15 24 26 27 28 29 31 32
55 55 52 50 45 46 43 29 22 29 28 30 27 25 20 26 23 24 23 22 24 22 21 20 18 22 23 18 16 17 16 15 13 13 14 18 16 21 26 25 26 28 30 32 34
53 48 45 43 45 46 31 25 27 30 30 29 25 19 22 27 24 24 24 24 26 25 20 21 20 24 27 25 21 19 16 19 17 18 16 17 18 29 31 31 30 29 32 31 32
48 45 41 43 43 41 30 30 29 31 31 29 24 26 24 26 25 24 22 27 28 28 26 24 22 27 28 26 23 20 20 17 18 16 15 14 17 22 30 31 30 24 29 31 33
47 37 41 42 41 35 29 30 31 32 32 29 28 27 27 27 27 25 23 28 29 29 27 26 24 23 25 22 22 22 20 19 18 22 18 15 15 31 31 28 26 25 24 26 27
43 35 41 39 28 34 30 32 36 33 33 31 31 30 29 29 27 27 26 28 31 30 27 26 24 22 24 26 26 21 18 20 20 14 20 19 15 32 29 29 28 21 22 24 26
40 38 41 38 29 29 33 33 33 34 35 32 30 33 31 29 26 29 31 34 33 31 28 28 22 16 15 12 16 18 23 24 21 19 18 16 15 24 31 33 31 22 21 23 24
38 32 36 37 35 31 30 32 31 33 35 33 32 32 30 28 28 28 26 31 32 30 33 31 26 20 18 17 20 21 23 23 22 19 16 18 19 21 28 26 29 27 21 23 25
38 35 34 30 31 33 30 32 29 27 32 32 29 27 26 19 25 24 27 29 30 31 31 29 24 24 24 24 24 24 23 22 20 20 20 19 21 23 23 23 20 17 20 25 25
34 33 33 34 35 32 28 26 29 29 26 24 25 25 23 22 24 22 24 22 26 28 26 29 22 24 22 21 21 19 21 22 20 16 22 22 23 25 26 23 17 19 22 25 24
38 37 32 33 30 25 24 26 27 25 25 24 24 23 22 21 26 27 26 26 27 28 25 24 24 22 17 18 20 17 17 14 8 13 13 7 8 9 17 19 21 23 27 27 27
Lifted_Index
9 9 9 9 9 9 9 9 10 10 10 10 11 11 11 11 11 10 10 9 7 7 8 9 10 10 10 9 9 9 7 6 7 7 7 8 8 8 8 8 8 8 8 7 5
9 9 9 9 9 9 9 9 10 10 10 10 11 11 11 10 10 10 10 8 7 8 9 9 10 10 10 9 9 8 7 7 7 8 8 8 8 8 8 8 8 8 7 7 6
10 10 9 9 9 9 9 10 10 10 10 11 11 11 11 10 9 10 9 8 7 8 9 9 10 10 9 9 9 8 7 8 8 8 8 8 8 8 8 8 8 8 7 7 7
10 10 10 10 10 10 10 10 10 10 11 11 11 11 11 10 9 9 9 8 8 8 9 9 9 9 8 8 8 8 8 8 8 8 8 8 8 8 8 8 8 7 7 7 7
10 10 10 10 10 10 10 10 10 10 11 11 11 11 10 9 9 9 9 9 8 9 10 10 9 9 8 8 8 8 8 8 8 8 7 7 7 7 7 7 7 7 7 7 7
10 10 10 10 10 10 10 10 11 11 11 12 12 11 10 9 10 10 10 10 10 10 10 10 9 9 9 8 8 8 7 7 7 7 7 7 6 6 7 7 7 7 7 7 7
10 10 10 10 10 10 10 11 11 12 12 12 11 11 10 10 11 11 10 10 10 10 10 9 9 9 9 8 8 7 6 6 6 6 6 6 6 6 6 7 7 7 7 7 7
10 10 10 10 10 10 11 11 12 12 12 11 11 10 10 11 11 11 11 10 10 10 9 9 8 9 8 8 7 6 5 5 5 6 6 6 5 6 6 7 7 6 6 7 7
10 10 10 10 10 10 11 12 12 12 12 11 10 9 10 10 11 11 11 10 10 9 8 8 7 7 7 6 5 4 4 4 4 5 6 6 6 6 7 7 7 6 6 6 6
10 10 10 10 11 11 12 12 12 11 11 10 10 9 9 10 11 11 10 10 9 9 8 7 6 6 6 5 4 4 4 3 4 6 7 7 7 7 7 7 7 6 6 6 6
10 10 10 10 11 11 11 11 11 10 10 10 10 9 10 10 10 10 10 10 9 8 7 6 5 5 6 6 5 5 4 4 5 7 7 7 7 7 7 7 7 6 6 6 6
10 10 10 11 11 11 11 11 11 10 9 9 10 10 10 10 10 10 10 9 8 7 7 6 5 6 7 7 6 6 5 5 6 8 8 7 7 8 8 7 7 7 6 6 5
10 10 10 11 11 11 11 11 11 10 8 8 9 10 9 9 9 9 9 9 8 7 6 6 6 7 8 8 7 7 6 6 7 7 7 7 7 7 8 8 8 7 7 6 5
11 11 11 12 12 11 11 11 11 9 7 7 8 9 9 9 8 9 10 9 8 7 7 7 8 8 8 8 8 7 8 8 8 7 7 6 6 7 9 8 8 8 7 5 4
13 13 12 12 12 12 12 12 10 8 5 6 7 8 9 8 9 9 10 10 9 8 8 8 9 9 9 9 9 9 9 9 8 7 6 6 6 7 8 8 7 7 6 5 4
14 14 13 12 12 12 12 11 9 6 5 5 7 7 8 8 8 9 10 10 9 9 8 9 9 10 10 10 9 9 8 7 7 6 5 6 6 7 7 7 6 5 5 5 5
14 14 13 12 12 12 12 9 7 5 5 6 6 7 7 7 8 9 9 9 9 8 7 8 9 10 10 10 9 9 8 6 4 3 4 6 6 6 5 5 4 4 4 4 5
14 13 12 12 12 12 10 8 5 5 6 6 7 7 7 8 9 9 10 10 10 9 7 6 7 9 10 10 9 9 8 5 3 3 4 6 6 5 4 3 3 2 2 3 4
14 13 12 12 12 11 9 6 5 6 7 7 7 7 7 8 9 10 10 11 11 10 9 7 8 9 10 10 9 9 8 6 4 3 4 5 4 3 2 2 1 1 2 3 3
13 13 12 13 12 10 7 6 6 8 8 8 7 7 7 8 9 10 10 11 11 11 10 9 9 10 10 9 9 8 7 6 5 3 2 3 3 2 1 1 1 1 2 3 4
12 11 12 12 11 9 7 7 8 9 10 10 9 8 8 9 9 10 10 11 11 11 11 10 10 10 10 9 8 7 6 5 4 3 2 2 2 2 1 1 1 2 2 3 4
11 11 11 11 10 9 8 9 10 10 11 11 11 11 11 10 10 10 11 11 11 11 11 11 10 9 8 8 7 6 5 5 4 4 3 3 2 1 1 1 1 2 3 3 3
11 11 11 11 9 9 9 10 11 11 11 12 12 12 12 12 11 11 11 11 11 11 10 10 9 7 6 6 6 6 5 4 4 3 3 3 2 1 0 0 1 2 2 3 3
11 11 11 11 11 11 11 11 11 12 12 13 13 13 13 12 12 12 12 12 11 10 9 8 7 6 5 5 5 5 5 4 3 3 2 2 1 1 1 1 1 2 2 2 2
12 12 12 12 12 12 12 12 11 12 13 13 13 14 13 12 12 12 13 12 11 9 8 6 6 5 4 4 5 5 4 4 3 2 2 1 1 1 1 1 2 2 2 2 2
13 13 13 13 13 13 13 12 12 13 13 14 14 14 14 13 13 13 13 12 11 9 7 6 5 5 4 5 5 4 4 2 2 2 2 2 2 2 2 2 2 2 2 2 2
13 13 13 13 13 13 12 12 13 14 14 14 14 14 14 14 13 13 13 12 10 8 6 5 5 4 4 4 5 4 3 2 1 2 2 2 2 2 2 3 3 3 2 3 3